#timestamp,LO_Frequency,Hit,StdDev 
1561381215.4,286047001.2,N
1561381235.2,286047000.6,N
1561381255.1,286046998.5,N
1561381256.0,286046998.5,N
1561381275.8,286046998.1,N
1561381295.6,286046998.6,N
1561381315.5,286047000.5,N
1561381335.3,286046999.8,N
1561381355.1,286047000.3,N
1561381375.9,286047000.9,N
1561381395.7,286047002.8,N
1561381415.6,286047001.9,N
1561381435.4,286047001.3,N
1561381455.2,286047001.7,N
1561381475.1,286047001.6,N
1561381476.0,286047001.6,N
1561381495.8,286047001.9,N
1561381515.6,286047002.5,N
1561381535.5,286047002.1,N
1561381555.3,286047002.0,N
1561381575.2,286047002.8,N
1561381595.9,286047002.4,N
1561381615.7,286047002.7,N
1561381635.6,286046999.9,N
1561381655.4,286047000.6,N
1561381675.2,286047000.2,N
1561381695.1,286046999.9,N
1561381696.0,286046999.9,N
1561381715.8,286047000.3,N
1561381735.7,286047002.4,N
1561381755.5,286047000.2,N
1561381775.3,286047000.0,N
1561381795.2,286047000.3,N
1561381815.0,286047000.2,N
1561381815.9,286047000.2,N
1561381835.8,286047000.1,N
1561381855.6,286047000.1,N
1561381875.5,286047000.3,N
1561381895.3,286047000.4,N
1561381915.1,286046999.7,N
1561381935.9,286047002.7,N
1561381955.7,286047002.4,N
1561381975.5,286046999.8,N
1561381995.4,286046999.8,N
1561382015.2,286047002.2,N
1561382035.0,286047002.8,N
1561382035.9,286047002.8,N
1561382055.8,286047001.6,N
1561382075.6,286046999.7,N
1561382095.4,286047000.7,N
1561382115.3,286047002.3,N
1561382135.1,286046999.9,N
1561382155.9,286046999.8,N
1561382175.7,286047000.9,N
1561382195.5,286047000.3,N
1561382215.4,286046999.8,N
1561382235.2,286046999.8,N
1561382255.0,286047000.0,N
1561382255.9,286047000.0,N
1561382275.8,286047001.9,N
1561382295.6,286047002.4,N
1561382315.5,286047002.3,N
1561382335.3,286047001.8,N
1561382355.1,286047001.9,N
1561382375.9,286047002.5,N
1561382395.7,286047001.6,N
1561382415.6,286047002.6,N
1561382435.4,286047001.4,N
1561382455.2,286047001.8,N
1561382475.1,286047001.8,N
1561382506.0,286047001.8,E
1561382515.0,286047002.5,N
1561382515.9,286047002.5,P
1561382535.8,286046999.7,P
1561382555.6,286047000.6,N
1561382575.4,286047001.0,N
1561382595.3,286047000.5,N
1561382615.1,286047000.6,N
1561382635.9,286047000.8,N
1561382655.7,286047001.2,N
1561382675.5,286046999.0,N
1561382695.4,286046996.7,Y
1561382715.2,286046997.8,P
1561382735.1,286046995.0,P
1561382736.0,286046995.0,N
1561382755.8,286046997.8,N
1561382775.6,286046997.6,N
1561382795.5,286046996.8,N
1561382815.3,286046995.4,N
1561382835.1,286046995.6,N
1561382855.9,286046996.3,N
1561382875.7,286046996.4,N
1561382895.6,286046996.4,N
1561382915.4,286046996.4,N
1561382935.2,286046996.1,N
1561382955.1,286046996.1,N
1561382956.0,286046996.1,N
1561382975.8,286046995.6,Y
1561382995.7,286046999.5,P
1561383015.5,286046999.0,N
1561383035.3,286046999.5,N
1561383055.2,286046998.7,N
1561383075.0,286046998.8,N
1561383075.9,286046998.8,N
1561383095.7,286046999.3,N
1561383115.6,286046998.8,N
1561383135.4,286046998.7,N
1561383155.3,286046998.1,N
1561383175.1,286046998.8,N
1561383176.0,286046998.8,N
1561383195.8,286046998.8,N
1561383215.7,286046999.1,N
1561383235.5,286046999.0,N
1561383255.3,286046998.8,N
1561383275.2,286047001.0,N
1561383295.0,286046998.5,N
1561383295.9,286046998.5,N
1561383315.8,286046998.6,N
1561383335.6,286047000.6,N
1561383355.4,286047000.7,N
1561383375.3,286047001.2,N
1561383395.1,286046998.2,N
1561383415.8,286047000.7,N
1561383435.7,286047000.2,N
1561383455.5,286047000.5,N
1561383475.4,286047000.7,N
1561383495.2,286047000.3,N
1561383515.0,286047000.5,N
1561383515.9,286047000.5,N
1561383535.8,286047000.7,N
1561383555.6,286046998.8,N
1561383575.5,286047000.7,N
1561383595.3,286046998.3,N
1561383615.1,286046998.8,N
1561383635.9,286047001.1,N
1561383655.7,286046998.3,N
1561383675.6,286046999.1,N
1561383695.4,286046998.3,N
1561383715.2,286046998.1,N
1561383735.1,286046998.5,N
1561383736.0,286046998.5,N
1561383755.8,286046998.4,N
1561383775.7,286046998.4,N
1561383795.5,286046998.2,N
1561383815.3,286047000.8,N
1561383835.2,286046998.2,N
1561383855.0,286046998.7,N
1561383855.9,286046998.7,N
1561383875.8,286046998.3,N
1561383895.6,286046998.6,N
1561383915.4,286046998.5,N
1561383935.3,286047000.7,N
1561383955.1,286046998.2,N
1561383975.8,286046999.2,N
1561383995.7,286046998.5,N
1561384015.5,286047001.1,N
1561384035.3,286046998.3,N
1561384055.2,286047000.8,N
1561384075.0,286046998.9,N
1561384075.9,286046998.9,N
1561384095.8,286046998.1,N
1561384115.6,286046998.1,N
1561384135.4,286046998.4,N
1561384155.3,286047001.2,N
1561384175.1,286046998.8,N
1561384195.9,286047000.2,N
1561384215.7,286046999.7,N
1561384235.5,286046999.7,N
1561384255.4,286047000.9,N
1561384275.2,286047000.0,N
1561384295.0,286047000.1,N
1561384296.0,286047000.1,N
1561384315.8,286047000.5,N
1561384335.6,286047000.6,N
1561384355.5,286047000.3,N
1561384375.3,286047000.3,N
1561384395.1,286047001.0,N
1561384415.9,286047000.0,N
1561384435.7,286046999.9,N
1561384455.6,286047000.4,N
1561384475.4,286047001.0,N
1561384495.2,286047000.3,N
1561384515.1,286047000.5,N
1561384516.0,286047000.5,N
1561384535.8,286047000.6,N
1561384555.7,286047000.2,N
1561384575.5,286047000.4,N
1561384595.3,286046998.1,N
1561384615.2,286046998.3,N
1561384635.0,286046998.2,N
1561384635.9,286046998.2,N
1561384655.8,286047001.1,N
1561384675.6,286047001.0,N
1561384695.4,286046998.6,N
1561384715.3,286047001.1,N
1561384735.1,286047000.2,N
1561384755.8,286047000.3,N
1561384775.7,286047000.9,N
1561384795.5,286047000.9,N
